Time,TemperatureF,DewpointF,PressureIn,WindDirection,WindDirectionDegrees,WindSpeedMPH,WindSpeedGustMPH,Humidity,HourlyPrecipIn,Conditions,Clouds,dailyrainin,SoftwareType,DateUTC
2013-02-05 05:04:00,62.1,61.5,29.74,ESE,112,0.0,-999.0,98,-99.99,,,0.02,Acu-Link.com,2013-02-05 11:04:00,
2013-02-05 05:19:00,62.1,61.5,29.75,East,90,1.7,-999.0,98,-99.99,,,0.02,Acu-Link.com,2013-02-05 11:19:00,
2013-02-05 05:35:00,62.1,61.5,29.75,East,90,1.7,-999.0,98,-99.99,,,0.02,Acu-Link.com,2013-02-05 11:35:00,
2013-02-05 05:50:00,62.2,61.6,29.76,SE,135,0.0,-999.0,98,-99.99,,,0.02,Acu-Link.com,2013-02-05 11:50:00,
2013-02-05 06:06:00,62.2,61.6,29.76,ENE,67,1.7,-999.0,98,-99.99,,,0.02,Acu-Link.com,2013-02-05 12:06:00,
2013-02-05 06:30:00,62.2,61.6,29.77,ESE,112,0.0,-999.0,98,-99.99,,,0.02,Acu-Link.com,2013-02-05 12:30:00,
2013-02-05 06:45:00,62.2,61.6,29.77,NE,45,0.0,-999.0,98,-99.99,,,0.02,Acu-Link.com,2013-02-05 12:45:00,
2013-02-05 07:00:00,62.4,61.8,29.78,ESE,112,1.7,-999.0,98,-99.99,,,0.02,Acu-Link.com,2013-02-05 13:00:00,
2013-02-05 07:16:00,62.4,61.8,29.78,SSE,157,0.0,-999.0,98,-99.99,,,0.02,Acu-Link.com,2013-02-05 13:16:00,
2013-02-05 07:31:00,62.4,61.8,29.79,ESE,112,0.0,-999.0,98,-99.99,,,0.02,Acu-Link.com,2013-02-05 13:31:00,
2013-02-05 07:46:00,62.8,62.2,29.79,SE,135,0.0,-999.0,98,-99.99,,,0.02,Acu-Link.com,2013-02-05 13:46:00,
2013-02-05 08:01:00,63.0,62.4,29.80,SSW,202,0.0,-999.0,98,-99.99,,,0.02,Acu-Link.com,2013-02-05 14:01:00,
2013-02-05 08:16:00,63.3,62.7,29.80,SSE,157,1.1,-999.0,98,-99.99,,,0.02,Acu-Link.com,2013-02-05 14:16:00,
2013-02-05 08:33:00,63.5,62.9,29.81,SSE,157,0.0,-999.0,98,-99.99,,,0.02,Acu-Link.com,2013-02-05 14:33:00,
2013-02-05 08:48:00,63.7,63.1,29.82,South,180,0.0,-999.0,98,-99.99,,,0.02,Acu-Link.com,2013-02-05 14:48:00,
2013-02-05 09:03:00,63.9,63.3,29.82,SE,135,2.2,-999.0,98,-99.99,,,0.02,Acu-Link.com,2013-02-05 15:03:00,
2013-02-05 09:19:00,64.6,64.0,29.83,SE,135,2.7,-999.0,98,-99.99,,,0.02,Acu-Link.com,2013-02-05 15:19:00,
2013-02-05 09:34:00,64.9,64.3,29.83,South,180,1.7,-999.0,98,-99.99,,,0.02,Acu-Link.com,2013-02-05 15:34:00,
2013-02-05 09:49:00,65.8,65.2,29.84,SE,135,2.2,-999.0,98,-99.99,,,0.02,Acu-Link.com,2013-02-05 15:49:00,
2013-02-05 10:04:00,66.4,65.8,29.85,SE,135,1.1,-999.0,98,-99.99,,,0.02,Acu-Link.com,2013-02-05 16:04:00,
2013-02-05 10:19:00,68.5,67.9,29.85,SE,135,2.7,-999.0,98,-99.99,,,0.02,Acu-Link.com,2013-02-05 16:19:00,
2013-02-05 10:35:00,68.0,67.4,29.84,SSW,202,1.1,-999.0,98,-99.99,,,0.02,Acu-Link.com,2013-02-05 16:35:00,
2013-02-05 10:50:00,68.4,67.8,29.84,ESE,112,1.7,-999.0,98,-99.99,,,0.02,Acu-Link.com,2013-02-05 16:50:00,
2013-02-05 11:05:00,68.5,67.9,29.84,SSE,157,3.7,-999.0,98,-99.99,,,0.02,Acu-Link.com,2013-02-05 17:05:00,
2013-02-05 11:20:00,71.1,70.5,29.84,NE,45,2.2,-999.0,98,-99.99,,,0.02,Acu-Link.com,2013-02-05 17:20:00,
2013-02-05 11:36:00,71.6,71.0,29.83,SSE,157,2.2,-999.0,98,-99.99,,,0.02,Acu-Link.com,2013-02-05 17:36:00,
2013-02-05 11:51:00,72.1,69.6,29.83,West,270,2.7,-999.0,92,-99.99,,,0.02,Acu-Link.com,2013-02-05 17:51:00,
2013-02-05 12:06:00,72.0,70.8,29.83,ESE,112,2.2,-999.0,96,-99.99,,,0.02,Acu-Link.com,2013-02-05 18:06:00,
2013-02-05 12:21:00,71.1,69.6,29.82,ESE,112,2.7,-999.0,95,-99.99,,,0.02,Acu-Link.com,2013-02-05 18:21:00,
2013-02-05 12:36:00,73.0,69.2,29.81,SW,225,2.2,-999.0,88,-99.99,,,0.02,Acu-Link.com,2013-02-05 18:36:00,
2013-02-05 12:51:00,74.3,69.1,29.81,East,90,1.7,-999.0,84,-99.99,,,0.02,Acu-Link.com,2013-02-05 18:51:00,
2013-02-05 13:06:00,75.2,68.2,29.79,West,270,4.2,-999.0,79,-99.99,,,0.02,Acu-Link.com,2013-02-05 19:06:00,
2013-02-05 13:21:00,75.0,67.3,29.78,SSW,202,2.7,-999.0,77,-99.99,,,0.02,Acu-Link.com,2013-02-05 19:21:00,
2013-02-05 13:36:00,75.0,67.7,29.78,ESE,112,1.1,-999.0,78,-99.99,,,0.02,Acu-Link.com,2013-02-05 19:36:00,
2013-02-05 13:52:00,75.7,66.8,29.77,SW,225,2.7,-999.0,74,-99.99,,,0.02,Acu-Link.com,2013-02-05 19:52:00,
2013-02-05 14:07:00,75.4,67.7,29.77,NW,315,3.2,-999.0,77,-99.99,,,0.02,Acu-Link.com,2013-02-05 20:07:00,
2013-02-05 14:22:00,74.1,67.9,29.77,North,0,2.7,-999.0,81,-99.99,,,0.02,Acu-Link.com,2013-02-05 20:22:00,
2013-02-05 14:37:00,73.9,67.3,29.76,SE,135,0.0,-999.0,80,-99.99,,,0.02,Acu-Link.com,2013-02-05 20:37:00,
2013-02-05 14:52:00,73.2,68.1,29.76,ENE,67,1.1,-999.0,84,-99.99,,,0.02,Acu-Link.com,2013-02-05 20:52:00,
2013-02-05 15:07:00,75.4,68.4,29.76,East,90,3.2,-999.0,79,-99.99,,,0.02,Acu-Link.com,2013-02-05 21:07:00,
2013-02-05 15:22:00,76.6,67.7,29.75,ESE,112,4.2,-999.0,74,-99.99,,,0.02,Acu-Link.com,2013-02-05 21:22:00,
2013-02-05 15:37:00,77.2,66.6,29.74,SSE,157,2.2,-999.0,70,-99.99,,,0.02,Acu-Link.com,2013-02-05 21:37:00,
2013-02-05 15:52:00,77.4,66.8,29.75,NW,315,3.2,-999.0,70,-99.99,,,0.02,Acu-Link.com,2013-02-05 21:52:00,
2013-02-05 16:07:00,77.2,67.1,29.75,East,90,0.0,-999.0,71,-99.99,,,0.02,Acu-Link.com,2013-02-05 22:07:00,
2013-02-05 16:25:00,77.7,67.1,29.75,ESE,112,3.2,-999.0,70,-99.99,,,0.02,Acu-Link.com,2013-02-05 22:25:00,
2013-02-05 18:27:00,75.4,66.1,29.76,SE,135,4.2,-999.0,73,-99.99,,,0.02,Acu-Link.com,2013-02-06 00:27:00,
2013-02-05 18:52:00,68.5,67.9,29.78,ESE,112,3.2,-999.0,98,-99.99,,,0.02,Acu-Link.com,2013-02-06 00:52:00,